BREEZE-M DEB (TANK), 55843

Orbit data source: Space-Track

BREEZE-M DEB (TANK), 55843 is space debris in HEO originally from a launch on Sun, 12 Mar 2023 UTC launched from the Tyuratam Missile And Space Complex (TTMTR). Debris objects in space refer to the collection of defunct objects orbiting the Earth. Examples of debris include non-operational satellites, rocket bodies, and fragments generated from explosions, collisions, or faulty payload assembly.

Loading next visibility...
Identifier
55843, 2023-031C
Orbit
HEO
Country
Flag of CISCIS
Related business
Manufacturer
Khrunichev
Mission
Spacecraft
Bus & Motor
BRIZ TANK, Unknown motor
Mass
~1,000 kg wet, 1,000 kg dry
Launch date (UTC)
2023-03-12 (3 years ago)
Launch vehicle
Unknown
Launch site
Tyuratam Missile And Space Complex (TTMTR)
Object type
Payload
Rocket body
Debris
Shape & HBR
Torus, 2.0 m
Radar Cross Section
8.218 m², Large (>1 m²)

Expand to show TLE details & history
Last TLE update: 1 day ago

TLE from 1 day ago
0 BREEZE-M DEB (TANK)
1 55843U 23031C   25349.57544531  .00067509 -46017-6  12377-2 0  9995
2 55843  48.6483 145.7635 5755402 339.2017   4.6188  4.51352882 19201
Epoch: 2025-12-15T13:48Z
TLE epoch observation values (Epoch: 2025-12-15T13:48:38.474Z)
Latitude
0.00005°
Longitude
-145.86665°
Altitude
348.743 km
Speed
9.631 km/s
True Right ascension
09h 43m 03s
True Declination
0° 00' 00"
Sunlit
Object was in full shadow at epoch
Visualization orbit readout
Latitude
Unknown
Longitude
Unknown
Altitude
Unknown
Speed
Unknown
Apparent Right ascension
Unknown
Apparent Declination
Unknown
Sunlit
N/A
Visualization observer readout
Local Sidereal Time
18:12:00
Azimuth
Unknown
Elevation
Unknown
Doppler factor
Unknown
Orbital elements
Apogee altitude
17,991.183 km
Perigee altitude
187.101 km
Semi-major axis
15,467.279 km
Eccentricity
0.57554
Inclination
48.6483°
RAAN
145.7635°
Arg. of periapsis
339.2017°
True anomaly
20.63397°
Mean anomaly
4.6188°
Eccentric anomaly
10.79515°
Mean motion
1.12829 °/min
Orbital period
319.07 mins
BSTAR
0.0012377
Loading maneuver chart data...
Computing Atmospheric mass density...
Loading historical data...
Loading historical data...
Loading historical data...
Loading historical data...
Loading historical data...
Loading historical data...
Loading historical data...
Other satellites on launch #31 in the year 2023 (2023-03-12 UTC)

Documentation

Showing up to 5 results
|